Time,TemperatureF,DewpointF,PressureIn,WindDirection,WindDirectionDegrees,WindSpeedMPH,WindSpeedGustMPH,Humidity,HourlyPrecipIn,Conditions,Clouds,dailyrainin,SoftwareType,DateUTC
2013-06-06 00:00:00,66.6,65.7,29.89,NNE,22,0.0,5.0,97,0.02,,---,0.57,VWS V14.01,2013-06-06 04:00:00,
2013-06-06 00:02:00,66.7,66.0,29.89,ENE,61,4.0,5.0,97,0.00,,,0.57,weatherlink.com 1.10,2013-06-06 04:02:00,
2013-06-06 00:19:00,66.4,66.0,29.89,ENE,67,4.0,4.0,97,0.00,,,0.00,weatherlink.com 1.10,2013-06-06 04:19:00,
2013-06-06 00:35:00,66.3,66.0,29.88,NE,56,1.0,5.0,97,0.00,,,0.00,weatherlink.com 1.10,2013-06-06 04:35:00,
2013-06-06 00:52:00,66.2,65.0,29.87,East,88,0.0,7.0,97,0.00,,,0.00,weatherlink.com 1.10,2013-06-06 04:52:00,
2013-06-06 01:08:00,66.0,65.0,29.87,ESE,107,2.0,8.0,97,0.00,,,0.00,weatherlink.com 1.10,2013-06-06 05:08:00,
2013-06-06 01:24:00,66.1,65.0,29.88,East,89,0.0,6.0,97,0.00,,,0.00,weatherlink.com 1.10,2013-06-06 05:24:00,
2013-06-06 01:40:00,66.2,65.0,29.88,SE,140,0.0,7.0,97,0.00,,,0.00,weatherlink.com 1.10,2013-06-06 05:40:00,
2013-06-06 01:58:00,66.3,66.0,29.88,ENE,71,0.0,5.0,97,0.00,,,0.00,weatherlink.com 1.10,2013-06-06 05:58:00,
2013-06-06 02:00:00,66.2,65.3,29.88,NE,41,1.0,9.0,97,0.00,,---,0.00,VWS V14.01,2013-06-06 06:00:00,
2013-06-06 02:14:00,65.8,65.0,29.87,East,91,1.0,6.0,97,0.00,,,0.00,weatherlink.com 1.10,2013-06-06 06:14:00,
2013-06-06 02:31:00,65.6,65.0,29.86,ENE,65,2.0,5.0,97,0.00,,,0.00,weatherlink.com 1.10,2013-06-06 06:31:00,
2013-06-06 02:47:00,65.4,65.0,29.85,North,351,3.0,8.0,97,0.00,,,0.00,weatherlink.com 1.10,2013-06-06 06:47:00,
2013-06-06 03:03:00,65.2,64.0,29.84,NE,44,0.0,5.0,97,0.00,,,0.00,weatherlink.com 1.10,2013-06-06 07:03:00,
2013-06-06 03:20:00,65.0,64.0,29.84,North,355,3.0,6.0,97,0.00,,,0.00,weatherlink.com 1.10,2013-06-06 07:20:00,
2013-06-06 03:36:00,65.0,64.0,29.83,NNE,24,3.0,5.0,97,0.00,,,0.00,weatherlink.com 1.10,2013-06-06 07:36:00,
2013-06-06 03:52:00,65.1,64.0,29.83,East,82,1.0,5.0,97,0.00,,,0.00,weatherlink.com 1.10,2013-06-06 07:52:00,
2013-06-06 04:00:00,65.2,64.3,29.83,East,94,1.0,7.0,97,0.00,,---,0.00,VWS V14.01,2013-06-06 08:00:00,
2013-06-06 04:09:00,65.2,64.0,29.83,East,81,0.0,4.0,97,0.00,,,0.00,weatherlink.com 1.10,2013-06-06 08:09:00,
2013-06-06 04:25:00,65.0,64.0,29.83,NE,52,1.0,4.0,97,0.00,,,0.00,weatherlink.com 1.10,2013-06-06 08:25:00,
2013-06-06 04:42:00,65.0,64.0,29.83,ENE,74,0.0,3.0,97,0.00,,,0.00,weatherlink.com 1.10,2013-06-06 08:42:00,
2013-06-06 04:58:00,64.9,64.0,29.82,NE,38,3.0,5.0,97,0.00,,,0.00,weatherlink.com 1.10,2013-06-06 08:58:00,
2013-06-06 05:15:00,64.9,64.0,29.82,NE,55,2.0,5.0,97,0.00,,,0.00,weatherlink.com 1.10,2013-06-06 09:15:00,
2013-06-06 05:31:00,64.9,64.0,29.82,ENE,74,2.0,5.0,97,0.00,,,0.00,weatherlink.com 1.10,2013-06-06 09:31:00,
2013-06-06 05:47:00,65.0,64.0,29.82,ENE,69,2.0,5.0,97,0.00,,,0.00,weatherlink.com 1.10,2013-06-06 09:47:00,
2013-06-06 06:00:00,65.0,64.1,29.82,ENE,59,2.0,5.0,97,0.00,,---,0.00,VWS V14.01,2013-06-06 10:00:00,
2013-06-06 06:04:00,65.0,64.0,29.82,NE,38,0.0,5.0,97,0.00,,,0.00,weatherlink.com 1.10,2013-06-06 10:04:00,
2013-06-06 06:20:00,65.1,64.0,29.82,ENE,76,2.0,2.0,97,0.00,,,0.00,weatherlink.com 1.10,2013-06-06 10:20:00,
2013-06-06 06:37:00,65.1,64.0,29.82,ENE,59,0.0,5.0,97,0.00,,,0.00,weatherlink.com 1.10,2013-06-06 10:37:00,
2013-06-06 06:54:00,65.1,64.0,29.82,NNE,19,0.0,5.0,97,0.00,,,0.00,weatherlink.com 1.10,2013-06-06 10:54:00,
2013-06-06 07:09:00,65.2,64.0,29.82,NE,46,2.0,5.0,97,0.00,,,0.00,weatherlink.com 1.10,2013-06-06 11:09:00,
2013-06-06 07:26:00,65.5,65.0,29.82,ENE,78,1.0,4.0,97,0.00,,,0.00,weatherlink.com 1.10,2013-06-06 11:26:00,
2013-06-06 07:43:00,65.7,65.0,29.82,East,79,2.0,4.0,97,0.00,,,0.00,weatherlink.com 1.10,2013-06-06 11:43:00,
2013-06-06 07:59:00,66.0,65.0,29.82,ENE,68,2.0,5.0,97,0.00,,,0.00,weatherlink.com 1.10,2013-06-06 11:59:00,
2013-06-06 08:00:00,66.2,65.3,29.83,ENE,63,0.0,6.0,97,0.00,,---,0.00,VWS V14.01,2013-06-06 12:00:00,
2013-06-06 08:16:00,66.3,66.0,29.83,ESE,109,2.0,5.0,97,0.00,,,0.00,weatherlink.com 1.10,2013-06-06 12:16:00,
2013-06-06 08:32:00,66.5,66.0,29.84,East,94,1.0,5.0,97,0.00,,,0.00,weatherlink.com 1.10,2013-06-06 12:32:00,
2013-06-06 08:48:00,66.8,66.0,29.84,NE,42,3.0,4.0,97,0.00,,,0.00,weatherlink.com 1.10,2013-06-06 12:48:00,
2013-06-06 09:05:00,67.0,66.0,29.83,ENE,59,3.0,6.0,97,0.01,,,0.01,weatherlink.com 1.10,2013-06-06 13:05:00,
2013-06-06 09:38:00,67.0,66.0,29.83,East,82,2.0,6.0,97,0.01,,,0.01,weatherlink.com 1.10,2013-06-06 13:38:00,
2013-06-06 09:54:00,67.1,66.0,29.84,NE,41,0.0,4.0,97,0.01,,,0.01,weatherlink.com 1.10,2013-06-06 13:54:00,
2013-06-06 10:00:00,67.4,66.8,29.83,ESE,123,2.0,7.0,98,0.01,,---,0.01,VWS V14.01,2013-06-06 14:00:00,
2013-06-06 10:11:00,67.5,67.0,29.83,SE,128,1.0,4.0,98,0.00,,,0.01,weatherlink.com 1.10,2013-06-06 14:11:00,
2013-06-06 10:27:00,67.8,67.0,29.83,NE,55,2.0,7.0,97,0.00,,,0.01,weatherlink.com 1.10,2013-06-06 14:27:00,
2013-06-06 10:43:00,68.1,67.0,29.84,SE,129,0.0,5.0,97,0.00,,,0.01,weatherlink.com 1.10,2013-06-06 14:43:00,
2013-06-06 11:00:00,68.2,67.0,29.84,East,91,0.0,6.0,96,0.00,,,0.01,weatherlink.com 1.10,2013-06-06 15:00:00,
2013-06-06 11:16:00,68.5,67.0,29.84,East,87,0.0,3.0,96,0.00,,,0.01,weatherlink.com 1.10,2013-06-06 15:16:00,
2013-06-06 11:49:00,69.8,68.0,29.84,SE,136,2.0,5.0,95,0.00,,,0.01,weatherlink.com 1.10,2013-06-06 15:49:00,
2013-06-06 12:00:00,70.9,68.5,29.84,SSW,200,1.0,6.0,92,0.00,,---,0.01,VWS V14.01,2013-06-06 16:00:00,
2013-06-06 12:06:00,70.9,69.0,29.84,South,178,2.0,3.0,92,0.00,,,0.01,weatherlink.com 1.10,2013-06-06 16:06:00,
2013-06-06 12:22:00,70.5,68.0,29.83,ESE,104,0.0,4.0,92,0.00,,,0.01,weatherlink.com 1.10,2013-06-06 16:22:00,
2013-06-06 12:38:00,70.7,69.0,29.82,East,79,1.0,4.0,93,0.00,,,0.01,weatherlink.com 1.10,2013-06-06 16:38:00,
2013-06-06 12:55:00,71.5,69.0,29.81,East,92,2.0,4.0,91,0.00,,,0.01,weatherlink.com 1.10,2013-06-06 16:55:00,
2013-06-06 13:12:00,72.1,69.0,29.82,SE,124,0.0,3.0,90,0.00,,,0.01,weatherlink.com 1.10,2013-06-06 17:12:00,
2013-06-06 13:28:00,72.7,69.0,29.81,NNE,30,0.0,2.0,89,0.00,,,0.01,weatherlink.com 1.10,2013-06-06 17:28:00,
2013-06-06 13:45:00,73.7,69.0,29.80,SSE,150,0.0,5.0,86,0.00,,,0.01,weatherlink.com 1.10,2013-06-06 17:45:00,
2013-06-06 14:00:00,74.4,68.9,29.80,SSE,166,2.0,6.0,83,0.00,,---,0.01,VWS V14.01,2013-06-06 18:00:00,
2013-06-06 14:18:00,74.9,69.0,29.80,ESE,115,0.0,3.0,83,0.00,,,0.01,weatherlink.com 1.10,2013-06-06 18:18:00,
2013-06-06 14:34:00,74.6,70.0,29.79,NW,304,2.0,6.0,85,0.00,,,0.01,weatherlink.com 1.10,2013-06-06 18:34:00,
2013-06-06 14:50:00,73.2,70.0,29.79,SSE,155,3.0,7.0,89,0.30,,,0.31,weatherlink.com 1.10,2013-06-06 18:50:00,
2013-06-06 15:07:00,71.9,69.0,29.79,SE,146,4.0,7.0,91,0.35,,,0.36,weatherlink.com 1.10,2013-06-06 19:07:00,
2013-06-06 15:23:00,71.5,70.0,29.78,SW,219,0.0,6.0,94,0.36,,,0.37,weatherlink.com 1.10,2013-06-06 19:23:00,
2013-06-06 15:39:00,71.6,70.0,29.78,SW,215,1.0,4.0,94,0.34,,,0.37,weatherlink.com 1.10,2013-06-06 19:39:00,
2013-06-06 15:55:00,71.9,70.0,29.77,SE,140,6.0,7.0,93,0.02,,,0.37,weatherlink.com 1.10,2013-06-06 19:55:00,
2013-06-06 16:00:00,72.0,69.9,29.77,SSE,161,3.0,7.0,93,0.36,,---,0.37,VWS V14.01,2013-06-06 20:00:00,
2013-06-06 16:13:00,72.3,70.0,29.77,SSE,165,6.0,6.0,92,0.00,,,0.37,weatherlink.com 1.10,2013-06-06 20:13:00,
2013-06-06 16:29:00,73.0,70.0,29.76,SW,230,0.0,6.0,91,0.00,,,0.37,weatherlink.com 1.10,2013-06-06 20:29:00,
2013-06-06 16:45:00,73.4,70.0,29.76,SW,219,1.0,4.0,89,0.00,,,0.37,weatherlink.com 1.10,2013-06-06 20:45:00,
2013-06-06 17:01:00,73.8,70.0,29.75,SSE,168,2.0,5.0,87,0.00,,,0.37,weatherlink.com 1.10,2013-06-06 21:01:00,
2013-06-06 17:18:00,74.3,70.0,29.75,SSW,195,3.0,6.0,85,0.00,,,0.37,weatherlink.com 1.10,2013-06-06 21:18:00,
2013-06-06 17:34:00,74.3,69.0,29.75,ESE,123,0.0,7.0,84,0.00,,,0.37,weatherlink.com 1.10,2013-06-06 21:34:00,
2013-06-06 17:51:00,74.2,69.0,29.75,South,173,4.0,6.0,84,0.00,,,0.37,weatherlink.com 1.10,2013-06-06 21:51:00,
2013-06-06 18:00:00,74.4,69.2,29.74,ESE,112,4.0,7.0,84,0.00,,---,0.37,VWS V14.01,2013-06-06 22:00:00,
2013-06-06 18:07:00,74.4,69.0,29.74,SE,141,6.0,6.0,84,0.00,,,0.37,weatherlink.com 1.10,2013-06-06 22:07:00,
2013-06-06 18:23:00,74.9,70.0,29.74,South,172,1.0,7.0,84,0.00,,,0.37,weatherlink.com 1.10,2013-06-06 22:23:00,
2013-06-06 18:40:00,75.3,70.0,29.73,South,186,2.0,5.0,83,0.00,,,0.37,weatherlink.com 1.10,2013-06-06 22:40:00,
2013-06-06 18:57:00,74.9,69.0,29.73,SSE,163,3.0,5.0,83,0.00,,,0.37,weatherlink.com 1.10,2013-06-06 22:57:00,
2013-06-06 19:13:00,74.4,69.0,29.73,SSE,149,0.0,5.0,84,0.00,,,0.37,weatherlink.com 1.10,2013-06-06 23:13:00,
2013-06-06 19:30:00,74.0,69.0,29.72,SSE,162,1.0,4.0,85,0.00,,,0.37,weatherlink.com 1.10,2013-06-06 23:30:00,
2013-06-06 19:46:00,73.6,69.0,29.73,ESE,122,0.0,3.0,86,0.00,,,0.37,weatherlink.com 1.10,2013-06-06 23:46:00,
2013-06-06 20:00:00,72.8,69.4,29.73,ESE,120,2.0,6.0,89,0.00,,---,0.37,VWS V14.01,2013-06-07 00:00:00,
2013-06-06 20:02:00,72.9,69.0,29.73,SE,146,1.0,6.0,88,0.00,,,0.37,weatherlink.com 1.10,2013-06-07 00:02:00,
2013-06-06 20:18:00,72.1,69.0,29.73,East,79,1.0,5.0,90,0.00,,,0.37,weatherlink.com 1.10,2013-06-07 00:18:00,
2013-06-06 20:36:00,71.4,69.0,29.72,ESE,115,0.0,5.0,91,0.00,,,0.37,weatherlink.com 1.10,2013-06-07 00:36:00,
2013-06-06 20:52:00,70.9,69.0,29.72,ENE,62,2.0,4.0,92,0.00,,,0.37,weatherlink.com 1.10,2013-06-07 00:52:00,
2013-06-06 21:08:00,70.6,69.0,29.72,ESE,109,0.0,4.0,93,0.00,,,0.37,weatherlink.com 1.10,2013-06-07 01:08:00,
2013-06-06 21:25:00,70.4,68.0,29.72,SE,128,2.0,4.0,93,0.00,,,0.37,weatherlink.com 1.10,2013-06-07 01:25:00,
2013-06-06 21:41:00,70.1,68.0,29.72,ESE,112,2.0,4.0,94,0.00,,,0.37,weatherlink.com 1.10,2013-06-07 01:41:00,
2013-06-06 21:57:00,70.0,69.0,29.73,ESE,120,2.0,3.0,95,0.00,,,0.37,weatherlink.com 1.10,2013-06-07 01:57:00,
2013-06-06 22:00:00,69.9,68.4,29.73,East,98,1.0,6.0,95,0.00,,---,0.37,VWS V14.01,2013-06-07 02:00:00,
2013-06-06 22:13:00,69.9,69.0,29.73,ESE,117,0.0,3.0,95,0.00,,,0.37,weatherlink.com 1.10,2013-06-07 02:13:00,
2013-06-06 22:30:00,69.8,68.0,29.74,East,97,1.0,3.0,95,0.00,,,0.37,weatherlink.com 1.10,2013-06-07 02:30:00,
2013-06-06 22:46:00,69.5,68.0,29.74,ESE,123,0.0,5.0,96,0.00,,,0.37,weatherlink.com 1.10,2013-06-07 02:46:00,
2013-06-06 23:03:00,69.4,68.0,29.74,ENE,60,2.0,4.0,95,0.00,,,0.37,weatherlink.com 1.10,2013-06-07 03:03:00,
2013-06-06 23:19:00,69.3,68.0,29.74,ESE,107,1.0,5.0,95,0.00,,,0.37,weatherlink.com 1.10,2013-06-07 03:19:00,
2013-06-06 23:36:00,69.2,68.0,29.74,ENE,72,1.0,4.0,96,0.00,,,0.37,weatherlink.com 1.10,2013-06-07 03:36:00,
2013-06-06 23:52:00,69.1,68.0,29.74,ENE,57,0.0,4.0,96,0.00,,,0.37,weatherlink.com 1.10,2013-06-07 03:52:00,